FW8249 Weather Reports


time (UTC)temp
F
wind
direction
speed
knots
gust
knots
rain 1hr
in
rain 24hr
in
rain mn
in
humidity
%
barometer
mb
20260508100050 55 0 0.0 0.0 0.00 0.00 0.00 74 1019.5
20260508094606 55 0 0.0 0.0 0.00 0.00 0.00 75 1019.6
20260508093053 55 0 0.0 0.0 0.00 0.00 0.00 75 1019.6
20260508091556 54 0 0.0 0.0 0.00 0.00 0.00 76 1019.5
20260508084556 53 0 0.0 0.0 0.00 0.00 0.00 78 1019.3
20260508083111 53 0 0.0 0.0 0.00 0.00 0.00 79 1019.3
20260508081552 53 0 0.0 0.0 0.00 0.00 0.00 81 1019.3
20260508080054 52 0 0.0 0.0 0.00 0.00 0.00 85 1019.3
20260508074553 50 0 0.0 0.0 0.00 0.00 0.00 89 1019.1
20260508073052 49 0 0.0 0.0 0.00 0.00 0.00 90 1018.9
20260508071554 49 0 0.0 0.0 0.00 0.00 0.00 91 1019.0
20260508070100 47 0 0.0 0.0 0.00 0.00 0.00 91 1018.9
20260508064557 47 0 0.0 0.0 0.00 0.00 0.00 91 1018.9
20260508063053 46 0 0.0 0.0 0.00 0.00 0.00 91 1018.9
20260508061557 46 0 0.0 0.0 0.00 0.00 0.00 92 1018.5
20260508060053 46 0 0.0 0.0 0.00 0.00 0.00 93 1018.3
20260508054600 45 0 0.0 0.0 0.00 0.00 0.00 92 1018.3
20260508053055 45 0 0.0 0.0 0.00 0.00 0.00 92 1018.3
20260508051553 44 0 0.0 0.0 0.00 0.00 0.00 92 1018.0
20260508050057 45 0 0.0 0.0 0.00 0.00 0.00 92 1018.2
20260508044552 45 0 0.0 0.0 0.00 0.00 0.00 92 1018.0
20260508043100 46 0 0.0 0.0 0.00 0.00 0.00 92 1018.0
20260508041558 46 0 0.0 0.0 0.00 0.00 0.00 92 1017.7
20260508040052 47 0 0.0 0.0 0.00 0.00 0.00 91 1017.6
20260508034556 48 0 0.0 0.0 0.00 0.00 0.00 90 1017.6
20260508033055 48 0 0.0 0.0 0.00 0.00 0.00 90 1017.5
20260508031551 48 0 0.0 0.0 0.00 0.00 0.00 90 1017.6
20260508030054 48 0 0.0 0.0 0.00 0.00 0.00 90 1017.7
20260508024552 48 0 0.0 0.0 0.00 0.00 0.00 90 1017.7
20260508023053 49 0 0.0 0.0 0.00 0.00 0.00 89 1017.5
20260508021556 49 0 0.0 0.0 0.00 0.00 0.00 89 1017.6
20260508020053 49 0 0.0 0.0 0.00 0.00 0.00 89 1017.6
20260508014555 49 0 0.0 0.0 0.00 0.00 0.00 89 1017.5
20260508013053 49 0 0.0 0.0 0.00 0.00 0.00 89 1017.5
20260508011555 49 0 0.0 0.0 0.00 0.00 0.00 89 1017.4
20260508010056 49 0 0.0 0.0 0.00 0.00 0.00 88 1017.7
20260508004555 49 0 0.0 0.0 0.00 0.00 0.00 88 1017.7
20260508003107 49 0 0.0 0.0 0.00 0.00 0.00 88 1017.6
20260508001558 49 0 0.0 0.0 0.00 0.00 0.00 88 1017.7
20260507234558 49 0 0.0 0.0 0.00 0.00 0.00 88 1017.6
20260507233052 49 0 0.0 0.0 0.00 0.00 0.00 88 1017.5
20260507231557 50 0 0.0 0.0 0.00 0.00 0.00 89 1017.5
20260507230055 50 0 0.0 0.0 0.00 0.00 0.00 89 1017.6
20260507224611 50 0 0.0 0.0 0.00 0.00 0.00 88 1017.5
20260507223057 50 0 0.0 0.0 0.00 0.00 0.00 88 1017.5
20260507221553 50 0 0.0 0.0 0.00 0.00 0.00 88 1017.3
20260507220050 50 0 0.0 0.0 0.00 0.00 0.00 88 1017.5
20260507214554 50 0 0.0 0.0 0.00 0.00 0.00 87 1017.4
20260507213054 51 0 0.0 0.0 0.00 0.00 0.00 85 1017.3
20260507211620 52 0 0.0 0.0 0.00 0.00 0.00 82 1017.0
20260507210056 52 0 0.0 0.0 0.00 0.00 0.00 81 1016.9
20260507204601 52 0 0.0 0.0 0.00 0.00 0.00 79 1016.8
20260507203054 52 0 0.0 0.0 0.00 0.00 0.00 79 1016.6
20260507201607 52 0 0.0 0.0 0.00 0.00 0.00 78 1016.3
20260507194555 53 0 0.0 0.0 0.00 0.00 0.00 78 1016.1
20260507193055 54 0 0.0 0.0 0.00 0.00 0.00 77 1015.9
20260507191558 54 0 0.0 0.0 0.00 0.00 0.00 76 1015.7
20260507190100 55 0 0.0 0.0 0.00 0.00 0.00 74 1015.7
20260507184555 55 0 0.0 0.0 0.00 0.00 0.00 71 1015.7
20260507183100 56 0 0.0 0.0 0.00 0.00 0.00 68 1015.6
20260507181556 56 0 0.0 0.0 0.00 0.00 0.00 66 1015.5
20260507180058 56 0 0.0 0.0 0.00 0.00 0.00 66 1015.6
20260507174559 56 0 0.0 0.0 0.00 0.00 0.00 64 1015.5
20260507173101 56 0 0.0 0.0 0.00 0.00 0.00 64 1015.4
20260507171557 56 0 0.0 0.0 0.00 0.00 0.00 64 1015.5
20260507170056 57 0 0.0 0.0 0.00 0.00 0.00 62 1015.3
20260507164556 57 0 0.0 0.9 0.00 0.00 0.00 63 1015.2
20260507163053 57 0 0.0 0.0 0.00 0.00 0.00 63 1015.1
20260507161601 58 0 0.0 0.0 0.00 0.00 0.00 63 1015.1
20260507160053 58 0 0.0 0.0 0.00 0.00 0.00 62 1015.0
20260507154555 59 0 0.0 0.0 0.00 0.00 0.00 59 1015.1
20260507153100 58 0 0.0 0.0 0.00 0.00 0.00 60 1015.2
20260507151552 58 0 0.0 0.0 0.00 0.00 0.00 61 1015.2
20260507150056 58 0 0.0 0.0 0.00 0.00 0.00 59 1015.0
20260507144552 59 0 0.0 0.0 0.00 0.00 0.00 58 1015.0
20260507143055 58 0 0.0 0.0 0.00 0.00 0.00 58 1015.3
20260507141557 58 0 0.0 0.0 0.00 0.00 0.00 60 1015.3
20260507140109 58 0 0.0 1.7 0.00 0.00 0.00 62 1015.1
20260507134551 58 0 0.0 3.5 0.00 0.00 0.00 65 1015.2
20260507133051 58 0 0.0 0.0 0.00 0.00 0.00 67 1015.4
20260507131552 58 0 0.0 0.0 0.00 0.00 0.00 67 1015.3
20260507130056 57 0 0.0 0.0 0.00 0.00 0.00 69 1015.4
20260507124555 56 0 0.0 0.0 0.00 0.00 0.00 72 1015.7
20260507123057 56 0 0.0 2.6 0.00 0.00 0.00 69 1015.7
20260507121552 56 0 0.0 0.0 0.00 0.00 0.00 71 1015.9
20260507120056 56 0 0.0 0.0 0.00 0.00 0.00 71 1016.0
20260507114549 55 0 0.0 0.0 0.00 0.00 0.00 71 1016.0
20260507113053 56 0 0.0 2.6 0.00 0.00 0.00 71 1016.2
20260507111551 56 0 0.0 1.7 0.00 0.00 0.00 72 1016.2
20260507110058 54 0 0.0 4.3 0.00 0.00 0.00 76 1016.3
20260507104555 53 0 0.0 0.9 0.00 0.00 0.00 81 1016.6
20260507103052 53 0 0.0 4.3 0.00 0.00 0.00 78 1016.6
20260507101605 53 193 0.0 0.0 0.00 0.00 0.00 79 1016.6